Preview of NWS' New Version of Forecast
This preview is not operational and should not be used for support decisions.

Regional Weather Roundup (RWR)

Issued by National Weather Service (NWS)

                            
000
ASUS43 KDMX 180906
RWRIA 

WEATHER ROUNDUP FOR IOWA
NATIONAL WEATHER SERVICE DES MOINES IA
400 AM CDT WED SEP 18 2019

NOTE: "FAIR" INDICATES FEW OR NO CLOUDS BELOW 12,000 FEET WITH NO
SIGNIFICANT WEATHER AND/OR OBSTRUCTIONS TO VISIBILITY.

* - THESE STATIONS ARE NOT NWS STATIONS...THUS NOT UNDER NWS
QUALITY CONTROL.  THEY ALSO DO NOT REPORT WEATHER SUCH 
AS PRECIPITATION OR FOG.  

IAZ001>003-012>014-020>022-031>034-043>046-181000-
   NORTHWEST IOWA
  
CITY           SKY/WX    TMP DP  RH WIND       PRES   REMARKS
CARROLL *      PTCLDY    73  66  78 S15       29.90F                  
CHEROKEE *     TSTM      73  69  86 S13       29.85F                  
DENISON *      CLEAR     73  70  88 S12G24    29.90F                  
LE MARS *      MOCLDY    73  72  94 S22G32    29.79F                  
SHELDON *        N/A     72  70  94 SE10G21   29.81F                  
SIOUX CITY     MOCLDY    78  67  68 S20G35    29.82F HX  80           
SPENCER        CLOUDY    74  67  78 S12G22    29.87R                  
STORM LAKE *   CLEAR     72  68  88 S13G20    29.85F                  
$$
 
IAZ055>058-069>071-079>083-090>094-181000-
   SOUTHWEST IOWA
  
CITY           SKY/WX    TMP DP  RH WIND       PRES   REMARKS
ATLANTIC *     CLEAR     73  68  83 S9        29.92F                  
AUDUBON *        N/A     73  66  78 S8        29.94F                  
CLARINDA *     CLEAR     70  68  94 S6        29.96F                  
COUNCIL BLFS * CLEAR     72  72 100 SE10      29.90F                  
CRESTON *      CLEAR     70  70 100 S9        29.96F                  
HARLAN  *      CLEAR     73  68  83 S10G16    29.91F                  
LAMONI         CLEAR     73  69  87 S7        29.99S                  
RED OAK *      CLOUDY    73  68  83 S5        29.94S HAZE             
SHENANDOAH *   CLEAR     72  68  88 SE7       29.92F                  
$$
 
IAZ047>049-059>061-072>074-084-181000-
   CENTRAL IOWA
  
CITY           SKY/WX    TMP DP  RH WIND       PRES   REMARKS
AMES           CLEAR     71  70  96 SE9       29.96S                  
ANKENY *       CLEAR     72  70  94 S8        29.97F                  
BOONE *        CLEAR     72  72 100 SE10      29.95F                  
CHARITON *     CLEAR     72  72 100 SE9       29.98F                  
DES MOINES     PTCLDY    73  70  90 SE10      29.95F                  
GRINNELL*      CLEAR     69  67  91 SE10      30.01F                  
KNOXVILLE *      N/A     72  70  94 SE10      29.98F                  
MARSHALLTOWN   CLEAR     68  68 100 SE12      29.97F                  
NEWTON *       CLEAR     70  70 100 SE9       29.98F                  
PELLA *        CLEAR     71  66  84 SE7       30.01S                  
PERRY *        FAIR      71  69  94 SE8       29.94F                  
$$
 
IAZ004>006-015-016-023>025-035-036-181000-
   NORTH CENTRAL IOWA
  
CITY           SKY/WX    TMP DP  RH WIND       PRES   REMARKS
ALGONA *       MOCLDY    73  73 100 S14G21    29.89F                  
CLARION *      CLEAR     72  72 100 S17G26    29.93F                  
ESTHERVILLE    CLOUDY    72  67  84 S9        29.87S THUNDER          
FORT DODGE *   CLEAR     74  70  87 S13G18    29.92F                  
MASON CITY     CLEAR     68  65  90 SE14G23   29.95F                  
FOREST CITY *  FAIR      70  70 100 S14       29.92F                  
IOWA FALLS *     N/A     68  64  85 SE7       29.98F                  
$$

IAZ007>011-017>019-026>030-037>042-050>054-066-181000-
   NORTHEAST IOWA
  
CITY           SKY/WX    TMP DP  RH WIND       PRES   REMARKS
CEDAR RAPIDS   FAIR      67  66  97 SE10      30.02F                  
CHARLES CITY * FAIR      68  68 100 SE12G18   29.98F                  
CLINTON *      FAIR      65  64  97 SE12      30.08F                  
DECORAH *      FAIR      66  66 100 S9        30.00F                  
DUBUQUE        FAIR      65  64  97 S13       30.06S FOG              
MONTICELLO *   FAIR      66  66 100 SE5       30.05F FOG              
OELWEIN *      CLEAR     68  68 100 SE14      30.02F                  
WATERLOO       FAIR      71  66  84 SE12      29.98F                  
$$
 
IAZ064-065-067-068-078-181000-
   EAST CENTRAL IOWA
  
CITY           SKY/WX    TMP DP  RH WIND       PRES   REMARKS
DAVENPORT      FAIR      66  63  90 SE8       30.08S                  
IOWA CITY      FAIR      68  65  90 SE6       30.05S                  
MUSCATINE *    FAIR      68  66  94 VRB5      30.05S                  
QUAD CITIES    FAIR      66  62  87 E5        30.06S                  
$$
 
IAZ062-063-075>077-085>089-095>099-181000-
   SOUTHEAST IOWA
  
CITY           SKY/WX    TMP DP  RH WIND       PRES   REMARKS
BURLINGTON     CLEAR     69  64  84 SE7       30.05S                  
FAIRFIELD *    PTCLDY    70  68  94 SE9       30.03S                  
FORT MADISON * CLEAR     70  66  88 SE5       30.05S                  
KEOKUK *       CLEAR     68  68 100 SE6       30.04S                  
OSKALOOSA *    FAIR      68  65  91 SE7       30.02S                  
CENTERVILLE *  FAIR      70  70 100 SE8       30.02F                  
OTTUMWA        CLEAR     71  67  87 SE10      30.01F                  
WASHINGTON *     N/A    N/A N/A N/A MISG        N/A                   
$$

ABBREVIATIONS USED IN REMARKS
   TC - TEMPERATURES IN CELSIUS
  WCI - WIND CHILL INDEX
   HX - HEAT INDEX
  VSB - VISIBILITY  
$$